Weather in Obruchevka

Russia / Chelyabinsk Oblast     52°45′58″N   59°12′42″E
В апреле 2022 года жителям России запретили посещать сайт meteo.paraplan.net по решению Генеральной прокуратуры. Аудитория сайта уменьшилась в 10 раз. Владельцы сайта не видят смысла в поддержке погодного сервера в таких условиях. Сайт будет закрыт в октябре.
temp.,
°C
wind,
m/s
gust,
m/s
humid.,
%
clouds,
%
prec.,
mm/h
press.,
hPa
HPBL,
m
3 october, mon
mon323:00+5sse3860100 0.0 1030202
02:00+5sse3658100 0.0 1029168
05:00+5sse335743 0.0 102957
08:00+4s335725 0.0 103054
11:00+8s453812 0.0 1029421
14:00+11s343632 0.0 1029742
17:00+11s234254 0.0 1029618
20:00+8s225245 0.0 103011
4 october, tue
tue423:00+6sse22545 0.0 103114
02:00+5sse225113 0.0 103111
05:00+4s224812 0.0 103311
08:00+4sse11485 0.0 103410
11:00+9sse23340 0.0 1034351
14:00+12s34270 0.0 1033828
17:00+12s34301 0.0 1033412
20:00+8sse223830 0.0 103411
5 october, wed
wed523:00+7se2242100 0.0 103516
02:00+5sse22436 0.0 103521
05:00+4s2247100 0.0 103615
08:00+4s2250100 0.0 103634
11:00+9s4636100 0.0 1035359
14:00+12s462827 0.0 1033680
17:00+12s473199 0.0 1031391
20:00+9sse2338100 0.0 103133
6 october, thu
thu623:00+8sse3439100 0.0 103073
02:00+8sse3839100 0.0 1029143
05:00+7s3840100 0.0 1027139
08:00+7sse3940100 0.0 1026170
11:00+11s5930100 0.0 1024377
14:00+13sw4525100 0.0 1022762
17:00+13s51129100 0.0 1020529
20:00+10s3946100 0.0 1020196
7 october, fri
fri723:00+11s51236100 0.0 1018301
02:00+10ssw51148100 0.0 1017269
05:00+10ssw385586 0.0 1016205
08:00+9wsw41060100 0.0 1015447
11:00+10w78555 0.0 10161178
14:00+11wnw794941 0.0 10161525
17:00+10wnw68505 0.0 10171378
20:00+8wsw355956 0.0 1017105